❰ Current Conditions

Winter Weather Advisory
Winter Weather Advisory issued December 16 at 3:44AM EST until December 17 at 1:00PM EST by NWS Boston/Norton MA

WINTER WEATHER ADVISORY IN EFFECT FROM 1 AM TO 1 PM EST TUESDAY

* WHAT...Mixed precipitation expected. Total snow accumulations of 1 to 3 inches and ice accumulations of a light glaze.

* WHERE...Mainly along and southeast of the Boston to Providence corridor.

* WHEN...From 1 AM to 1 PM EST Tuesday.

* IMPACTS...Plan on slippery road conditions. The hazardous conditions will impact the morning commute.

* ADDITIONAL DETAILS...Moderate to heavy snow is expected to be in progress during the start of the Tuesday morning commute near and especially south of the Massachusetts turnpike. The precipitation will transition to a brief period of sleet and freezing rain during the morning before a transition to all rain.

*PRECAUTIONARY/PREPAREDNESS ACTIONS...Slow down and use caution while traveling.
NWS Regional Weather Roundup - New England Area

REGIONAL WEATHER ROUNDUP
NATIONAL WEATHER SERVICE BOSTON/NORTON MA
700 AM EST MON DEC 16 2019

NOTE:  "FAIR" INDICATES FEW OR NO CLOUDS BELOW 12,000 FEET WITH NO 
SIGNIFICANT WEATHER AND/OR OBSTRUCTIONS TO VISIBILITY.

MAZALL-161300-
EASTERN MASSACHUSETTS
  
CITY           SKY/WX    TMP DP  RH WIND       PRES   REMARKS
BOSTON         MOCLDY    32   8  36 W12       30.18R WCI  23          
6HR MIN TEMP:  32; 6HR MAX TEMP:  34;                                

BEVERLY        FAIR      28   8  43 W6        30.17R WCI  22          
LAWRENCE       FAIR      26   7  44 W8G18     30.19R WCI  18          
BEDFORD        MOCLDY    28   7  41 W5        30.17R WCI  23          
BLUE HILL        N/A     26  10  50 W12       30.14R WCI  16          
NORWOOD        FAIR      32  11  41 W6        30.19R WCI  26          
MARSHFIELD     FAIR      30  12  47 CALM      30.19R                  
PLYMOUTH       FAIR      27  16  63 SW7       30.19R WCI  19          
TAUNTON        FAIR      30  14  51 W3        30.19R                  
NEW BEDFORD    FAIR      31  14  49 W12       30.19R WCI  22          
$$

MAZALL-161300-
CAPE COD AND THE ISLANDS
  
CITY           SKY/WX    TMP DP  RH WIND       PRES   REMARKS
FALMOUTH       CLEAR     30  14  51 W9        30.19R WCI  22          
HYANNIS        FAIR      31  14  49 W6        30.18R WCI  25          
CHATHAM        FAIR      29  15  56 VRB5      30.20R WCI  24          
PROVINCETOWN   FAIR      31  15  52 W14       30.19R WCI  21          
NANTUCKET      FAIR      32  17  54 NW8       30.21R WCI  25          
MARTHAS VNYRD  FAIR      32  17  54 W8        30.21R WCI  25          
$$
 
MAZALL-161300-
CENTRAL AND WESTERN MASSACHUSETTS
  
CITY           SKY/WX    TMP DP  RH WIND       PRES   REMARKS
WORCESTER      FAIR      24  16  71 W12       30.13R WCI  13          
6HR MIN TEMP:  24; 6HR MAX TEMP:  26;                                

FITCHBURG      FAIR      26   9  48 NW8       30.18R WCI  18          
ORANGE         FAIR      27   9  46 W12       30.18R WCI  17          
SPRINGFIELD    MOCLDY    28  12  51 W14       30.19R WCI  17          
WESTFIELD      FAIR      27  13  55 W8        30.21R WCI  19          
NORTH ADAMS    CLOUDY    22  12  65 W6        30.20R WCI  14          
PITTSFIELD     CLOUDY    23  12  62 W10       30.15R WCI  12          
$$
 
RIZALL-161300-
RHODE ISLAND
  
CITY           SKY/WX    TMP DP  RH WIND       PRES   REMARKS
PROVIDENCE     MOCLDY    30  16  56 W7        30.22R WCI  23          
6HR MIN TEMP:  30; 6HR MAX TEMP:  32;                                

NEWPORT        FAIR      31  17  56 W12       30.21R WCI  22          
BLOCK ISLAND   MOCLDY    32  17  54 NW9       30.23R WCI  24          
SMITHFIELD     FAIR      27  15  61 W7        30.18R WCI  19          
WESTERLY       FAIR      32  16  51 W3        30.23S                  
$$
 
CTZALL-161300-
CONNECTICUT
  
CITY           SKY/WX    TMP DP  RH WIND       PRES   REMARKS
BRADLEY INTL   MOCLDY    25  16  68 SW5       30.23R WCI  19          
6HR MIN TEMP:  25; 6HR MAX TEMP:  31;                                

HARTFORD       FAIR      30  17  58 W5        30.24R WCI  25          
BRIDGEPORT     FAIR      32  15  49 W6        30.24R WCI  26          
DANBURY        FAIR      28  14  55 W3        30.23R                  
GROTON         FAIR      31  17  56 NW3       30.23R                  
NEW HAVEN      FAIR      33  17  51 NW5       30.24R WCI  29          
CHESTER        CLOUDY    28  18  64 VRB3      30.22R                  
MERIDEN        FAIR      26  22  84 CALM      30.24R                  
WILLIMANTIC    FAIR      28  17  63 W6        30.23R WCI  22          
OXFORD         MOCLDY    27  17  66 VRB3      30.20R                  
$$

MEZ002-015-021-024-NHZ003-005-008-011-012-014-VTZ005-008-161300-
NORTHERN NEW ENGLAND
  
CITY           SKY/WX    TMP DP  RH WIND       PRES   REMARKS
PORTLAND ME    FAIR      25   4  40 S3        30.11R                  
6HR MIN TEMP:  24; 6HR MAX TEMP:  29;                                

BANGOR ME      FAIR      19   0  43 W9G21     30.02R WCI   8          
CONCORD NH     FAIR      22   6  50 W9        30.16R WCI  12          
MANCHESTER NH  MOCLDY    26   6  42 W12G22    30.15R WCI  16          
NASHUA NH      NOT AVBL                                               
PORTSMOUTH NH  MOCLDY    25   4  40 W12G18    30.14R WCI  15          
JAFFREY NH     FAIR      22   7  52 S5        30.12R WCI  16          
KEENE NH       FAIR      22  12  65 W3        30.18R                  
BURLINGTON VT  FAIR      18   6  59 N8        30.22R WCI   8          
MT. WASHINGTON FOG       -8  -8 100 W66G81      N/A  VSB 3/16WCI -45  
$$

NYZ052-076-161300-
EASTERN NEW YORK
  
CITY           SKY/WX    TMP DP  RH WIND       PRES   REMARKS
ALBANY         CLOUDY    27  14  58 W7        30.25R WCI  19          
6HR MIN TEMP:  25; 6HR MAX TEMP:  27;                                

NEW YORK CITY  CLOUDY    34  15  46 NW6       30.25R WCI  29          
6HR MIN TEMP:  34; 6HR MAX TEMP:  37;                                

$$
 
ANZALL-161300-
MARINE OBSERVATIONS
  
STATION/POSITION TIME  TEMP    WIND        PRES    VSBY  WAVE
                       AIR SEA DIR/SP/G                  HT/PER
                 (UTC) (F)     (DEG/KT/KT) (MB)    (MI)  (FT/S)
BOSTON BUOY      1050   33 46  290/ 19/ 27 1020.4          3/ 4
BUZZARDS BAY     1100   32     300/ 17/ 19 1023.2R
NANTUCKET SOUND  1140      42                N/A           2/ 4
MASS BAY-STELLWA 1104   31 46  320/ 16/ 21 1019.5R  1 7/8  2/ 3
ISLE OF SHOALS   1100   28     270/ 19/ 22 1020.0R
S OF BLOCK IS    1130      52                N/A           6/10
$$

......................KEY.........................
  SKY/WX - SKY CONDITION/PRESENT WEATHER
  TMP    - TEMPERATURE IN FAHRENHEIT
  DWPT   - DEWPOINT IN FAHRENHEIT
  RH     - RELATIVE HUMIDITY IN PERCENT
  WIND   - DIRECTION AND SPEED IN MPH
  PRES   - MEAN SEA LEVEL PRESSURE IN INCHES OF HG
  WCI    - WIND CHILL INDEX
  VSB    - VISIBILITY IN MILES
  HX     - HEAT INDEX
  TC     - TEMPERATURE IN CELSIUS
  VRB    - VARIABLE WIND DIRECTION